Location: Unspecified
(47.9110°N, 14.3980°E)
Time: 08:09:55
(UTC+00:00)

Cosmos 2082 Rocket - Pass Details

Date: 06 August 2020
Orbit: 835 x 852 km, 71.0° (Epoch: 26 September)

Event Time Altitude Azimuth Distance (km) Brightness Sun altitude
Exits shadow 20:34:08 10° 195° (SSW) 2,466 4.3 -17.1°
Maximum altitude 20:39:45 68° 113° (ESE) 910 2.1 -17.7°
Drops below altitude 10° 20:45:23 10° 32° (NNE) 2,474 4.9 -18.2°
Sets 20:47:51 0° 30° (NNE) 3,411 5.7 -18.5°
